SKW1166 KLGA-KSAV

Flight info

Callsign SKW1166
Flight time 1h 38m
Altitude 32000
Route WHITE Q409 SESUE SOOOP
Aircraft CRJ7/M-VGDW/C

Departure

Time 2026-05-06 15:46
Airport LaGuardia Airport (KLGA)

Arrival

Time 2026-05-06 17:24
Airport Savannah Hilton Head International Airport (KSAV)
Time Latitude Longitude Altitude Speed Heading
2026-05-06 15:34 40.77512 -73.87155 15 ft 0 kts 326°
2026-05-06 15:39 40.77507 -73.87150 15 ft 3 kts 326°
2026-05-06 15:39 40.77492 -73.87136 15 ft 3 kts 326°
2026-05-06 15:39 40.77475 -73.87133 17 ft 1 kts 27°
2026-05-06 15:40 40.77482 -73.87129 14 ft 3 kts 27°
2026-05-06 15:40 40.77487 -73.87125 15 ft 0 kts 27°
2026-05-06 15:41 40.77491 -73.87120 17 ft 3 kts 45°
2026-05-06 15:41 40.77532 -73.87056 13 ft 13 kts 47°
2026-05-06 15:41 40.77576 -73.86996 12 ft 14 kts 48°
2026-05-06 15:41 40.77588 -73.86882 10 ft 13 kts 120°
2026-05-06 15:42 40.77537 -73.86780 9 ft 13 kts 133°
2026-05-06 15:42 40.77479 -73.86679 8 ft 14 kts 123°
2026-05-06 15:42 40.77430 -73.86573 9 ft 13 kts 122°
2026-05-06 15:42 40.77386 -73.86480 9 ft 12 kts 121°
2026-05-06 15:43 40.77342 -73.86388 9 ft 12 kts 123°
2026-05-06 15:43 40.77298 -73.86301 11 ft 10 kts 121°
2026-05-06 15:43 40.77266 -73.86228 13 ft 9 kts 120°
2026-05-06 15:43 40.77229 -73.86146 13 ft 13 kts 122°
2026-05-06 15:44 40.77170 -73.86033 11 ft 17 kts 123°
2026-05-06 15:44 40.77111 -73.85903 11 ft 14 kts 111°
2026-05-06 15:44 40.77146 -73.85807 10 ft 12 kts 49°
2026-05-06 15:44 40.77212 -73.85751 12 ft 10 kts 348°
2026-05-06 15:45 40.77247 -73.85798 13 ft 6 kts 302°
2026-05-06 15:45 40.77408 -73.86132 14 ft 84 kts 302°
2026-05-06 15:45 40.77846 -73.87049 16 ft 147 kts 302°
2026-05-06 15:45 40.78461 -73.88299 276 ft 170 kts 296°
2026-05-06 15:46 40.78846 -73.89732 925 ft 162 kts 261°
2026-05-06 15:46 40.78322 -73.90937 1736 ft 157 kts 213°
2026-05-06 15:46 40.77292 -73.91532 2596 ft 165 kts 207°
2026-05-06 15:46 40.76114 -73.92141 3248 ft 201 kts 204°
2026-05-06 15:47 40.74745 -73.92809 4070 ft 216 kts 204°
2026-05-06 15:47 40.73286 -73.93413 4900 ft 223 kts 201°
2026-05-06 15:47 40.71765 -73.93955 5758 ft 230 kts 200°
2026-05-06 15:47 40.70227 -73.94592 6617 ft 234 kts 202°
2026-05-06 15:48 40.68669 -73.95293 7415 ft 239 kts 201°
2026-05-06 15:48 40.67067 -73.95968 8198 ft 244 kts 201°
2026-05-06 15:48 40.65447 -73.96678 8963 ft 247 kts 201°
2026-05-06 15:48 40.63805 -73.97409 9641 ft 253 kts 201°
2026-05-06 15:49 40.62099 -73.98173 10111 ft 265 kts 201°
2026-05-06 15:49 40.60369 -73.98937 10572 ft 276 kts 201°
2026-05-06 15:49 40.58459 -73.99777 11077 ft 286 kts 201°
2026-05-06 15:49 40.56538 -74.00630 11603 ft 296 kts 202°
2026-05-06 15:50 40.54555 -74.01498 12119 ft 305 kts 202°
2026-05-06 15:50 40.52517 -74.02396 12654 ft 313 kts 202°
2026-05-06 15:50 40.50425 -74.03315 13195 ft 321 kts 202°
2026-05-06 15:50 40.48282 -74.04256 13730 ft 327 kts 202°
2026-05-06 15:51 40.46119 -74.05208 14204 ft 329 kts 202°
2026-05-06 15:51 40.43943 -74.06164 14662 ft 330 kts 203°
2026-05-06 15:51 40.41759 -74.07121 15147 ft 331 kts 204°
2026-05-06 15:51 40.39572 -74.08080 15630 ft 332 kts 204°
2026-05-06 15:52 40.37376 -74.09041 16128 ft 332 kts 204°
2026-05-06 15:52 40.35184 -74.10004 16630 ft 332 kts 204°
2026-05-06 15:52 40.32996 -74.10963 17137 ft 331 kts 205°
2026-05-06 15:52 40.30818 -74.11916 17655 ft 329 kts 205°
2026-05-06 15:53 40.28652 -74.12862 18177 ft 327 kts 206°
2026-05-06 15:53 40.26526 -74.13791 18623 ft 325 kts 206°
2026-05-06 15:53 40.24395 -74.14721 19050 ft 322 kts 206°
2026-05-06 15:53 40.22283 -74.15646 19501 ft 318 kts 206°
2026-05-06 15:54 40.20194 -74.16557 19966 ft 314 kts 206°
2026-05-06 15:54 40.18798 -74.17168 20287 ft 311 kts 206°
2026-05-06 15:54 40.16264 -74.18268 20833 ft 307 kts 207°
2026-05-06 15:54 40.14231 -74.19156 21065 ft 310 kts 207°
2026-05-06 15:55 40.12171 -74.20052 21307 ft 313 kts 207°
2026-05-06 15:55 40.10100 -74.20954 21552 ft 315 kts 207°
2026-05-06 15:55 40.08011 -74.21861 21803 ft 317 kts 207°
2026-05-06 15:55 40.05912 -74.22768 22039 ft 318 kts 207°
2026-05-06 15:56 40.03807 -74.23677 22269 ft 319 kts 207°
2026-05-06 15:56 40.01715 -74.24631 22530 ft 315 kts 212°
2026-05-06 15:56 39.99806 -74.25962 22841 ft 310 kts 219°
2026-05-06 15:56 39.98008 -74.27491 23111 ft 307 kts 223°
2026-05-06 15:57 39.96290 -74.29129 23377 ft 305 kts 224°
2026-05-06 15:57 39.94594 -74.30801 23621 ft 305 kts 224°
2026-05-06 15:57 39.92903 -74.32464 23844 ft 305 kts 224°
2026-05-06 15:57 39.91206 -74.34119 24072 ft 304 kts 224°
2026-05-06 15:58 39.89517 -74.35765 24307 ft 303 kts 224°
2026-05-06 15:58 39.87817 -74.37389 24555 ft 302 kts 223°
2026-05-06 15:58 39.86124 -74.38998 24783 ft 301 kts 224°
2026-05-06 15:58 39.84433 -74.40602 24970 ft 302 kts 224°
2026-05-06 15:59 39.82725 -74.42227 25206 ft 307 kts 224°
2026-05-06 15:59 39.81071 -74.43931 25443 ft 308 kts 229°
2026-05-06 15:59 39.79627 -74.45707 25668 ft 309 kts 232°
2026-05-06 15:59 39.78135 -74.47733 25912 ft 312 kts 233°
2026-05-06 16:00 39.76643 -74.49800 26159 ft 315 kts 233°
2026-05-06 16:00 39.75135 -74.51889 26401 ft 319 kts 233°
2026-05-06 16:00 39.73606 -74.53950 26649 ft 322 kts 232°
2026-05-06 16:00 39.72015 -74.56067 26915 ft 325 kts 232°
2026-05-06 16:01 39.70426 -74.58173 27176 ft 328 kts 232°
2026-05-06 16:01 39.68825 -74.60293 27442 ft 330 kts 232°
2026-05-06 16:01 39.67234 -74.62399 27698 ft 332 kts 232°
2026-05-06 16:01 39.65586 -74.64574 27964 ft 334 kts 232°
2026-05-06 16:02 39.63977 -74.66700 28233 ft 336 kts 232°
2026-05-06 16:02 39.62335 -74.68865 28506 ft 337 kts 232°
2026-05-06 16:02 39.60684 -74.71038 28774 ft 338 kts 232°
2026-05-06 16:02 39.59031 -74.73214 29045 ft 339 kts 232°
2026-05-06 16:03 39.57374 -74.75398 29315 ft 340 kts 233°
2026-05-06 16:03 39.55711 -74.77583 29590 ft 341 kts 233°
2026-05-06 16:03 39.54047 -74.79771 29872 ft 341 kts 233°
2026-05-06 16:03 39.52380 -74.81959 30123 ft 341 kts 233°
2026-05-06 16:04 39.50716 -74.84142 30352 ft 341 kts 233°
2026-05-06 16:04 39.49050 -74.86323 30585 ft 340 kts 233°
2026-05-06 16:04 39.47523 -74.88317 30787 ft 340 kts 233°
2026-05-06 16:04 39.45857 -74.90485 31027 ft 339 kts 234°
2026-05-06 16:05 39.44202 -74.92644 31264 ft 338 kts 234°
2026-05-06 16:05 39.42553 -74.94802 31506 ft 337 kts 234°
2026-05-06 16:05 39.41462 -74.96228 31664 ft 336 kts 234°
2026-05-06 16:05 39.39816 -74.98384 31809 ft 338 kts 234°
2026-05-06 16:06 39.36470 -75.02754 31932 ft 347 kts 234°
2026-05-06 16:06 39.33025 -75.07248 31954 ft 357 kts 234°
2026-05-06 16:07 39.29453 -75.11855 31970 ft 369 kts 233°
2026-05-06 16:07 39.25680 -75.16510 31941 ft 380 kts 233°
2026-05-06 16:08 39.21808 -75.21274 31938 ft 390 kts 232°
2026-05-06 16:08 39.17839 -75.26153 31921 ft 399 kts 232°
2026-05-06 16:09 39.13706 -75.31059 31920 ft 415 kts 225°
2026-05-06 16:09 39.11189 -75.32872 31928 ft 434 kts 213°
2026-05-06 16:09 39.08350 -75.34314 31915 ft 441 kts 211°
2026-05-06 16:10 39.02592 -75.37230 31917 ft 447 kts 212°
2026-05-06 16:10 38.96702 -75.40065 31920 ft 467 kts 201°
2026-05-06 16:11 38.93420 -75.40536 31926 ft 482 kts 192°
2026-05-06 16:11 38.90057 -75.40739 31957 ft 484 kts 193°
2026-05-06 16:11 38.83391 -75.41644 31951 ft 479 kts 199°
2026-05-06 16:12 38.76793 -75.43010 31966 ft 482 kts 199°
2026-05-06 16:12 38.70174 -75.44254 31964 ft 485 kts 198°
2026-05-06 16:13 38.63477 -75.45468 31941 ft 487 kts 198°
2026-05-06 16:13 38.56766 -75.46689 31968 ft 488 kts 198°
2026-05-06 16:14 38.50039 -75.47915 31972 ft 489 kts 198°
2026-05-06 16:14 38.43260 -75.49143 31943 ft 490 kts 198°
2026-05-06 16:15 38.36735 -75.51016 31972 ft 468 kts 213°
2026-05-06 16:15 38.30837 -75.54430 31984 ft 465 kts 215°
2026-05-06 16:16 38.25205 -75.58315 31979 ft 453 kts 224°
2026-05-06 16:16 38.20182 -75.63085 31961 ft 450 kts 226°
2026-05-06 16:17 38.15106 -75.67814 31965 ft 454 kts 224°
2026-05-06 16:17 38.09953 -75.72472 31969 ft 455 kts 224°
2026-05-06 16:18 38.04797 -75.77127 31969 ft 455 kts 224°
2026-05-06 16:18 37.99611 -75.81764 31956 ft 456 kts 224°
2026-05-06 16:19 37.94414 -75.86392 31977 ft 456 kts 225°
2026-05-06 16:19 37.90133 -75.90252 31981 ft 456 kts 225°
2026-05-06 16:20 37.84954 -75.94905 31984 ft 457 kts 225°
2026-05-06 16:20 37.79767 -75.99549 31973 ft 457 kts 224°
2026-05-06 16:21 37.74570 -76.04206 31982 ft 458 kts 224°
2026-05-06 16:21 37.69349 -76.08855 31983 ft 459 kts 224°
2026-05-06 16:22 37.64121 -76.13510 31982 ft 460 kts 224°
2026-05-06 16:22 37.58879 -76.18153 31983 ft 461 kts 224°
2026-05-06 16:23 37.53571 -76.22706 31976 ft 461 kts 223°
2026-05-06 16:23 37.48262 -76.27241 31973 ft 461 kts 223°
2026-05-06 16:24 37.42952 -76.31762 31983 ft 461 kts 223°
2026-05-06 16:24 37.37565 -76.36344 31967 ft 461 kts 223°
2026-05-06 16:25 37.32279 -76.40839 31980 ft 462 kts 223°
2026-05-06 16:25 37.26948 -76.45351 31989 ft 463 kts 223°
2026-05-06 16:26 37.21605 -76.49872 32010 ft 463 kts 223°
2026-05-06 16:26 37.16249 -76.54379 31994 ft 463 kts 223°
2026-05-06 16:27 37.10912 -76.58891 32002 ft 463 kts 223°
2026-05-06 16:27 37.05568 -76.63392 31984 ft 463 kts 223°
2026-05-06 16:28 37.00218 -76.67885 31988 ft 463 kts 223°
2026-05-06 16:28 36.94862 -76.72382 31974 ft 463 kts 222°
2026-05-06 16:29 36.89717 -76.76690 32011 ft 464 kts 222°
2026-05-06 16:29 36.84355 -76.81174 32009 ft 465 kts 222°
2026-05-06 16:30 36.79843 -76.84937 32012 ft 466 kts 222°
2026-05-06 16:30 36.73581 -76.90153 32011 ft 466 kts 221°
2026-05-06 16:31 36.68184 -76.94643 32028 ft 466 kts 221°
2026-05-06 16:31 36.62788 -76.99123 32024 ft 466 kts 221°
2026-05-06 16:32 36.57380 -77.03606 32022 ft 467 kts 221°
2026-05-06 16:32 36.51971 -77.08080 31999 ft 467 kts 221°
2026-05-06 16:33 36.46560 -77.12549 32019 ft 467 kts 221°
2026-05-06 16:34 36.38461 -77.19224 32033 ft 468 kts 221°
2026-05-06 16:34 36.33911 -77.22970 32036 ft 468 kts 221°
2026-05-06 16:35 36.28566 -77.27600 32021 ft 465 kts 224°
2026-05-06 16:35 36.23538 -77.32603 32030 ft 464 kts 226°
2026-05-06 16:36 36.18487 -77.37603 32025 ft 465 kts 225°
2026-05-06 16:36 36.13395 -77.42554 32024 ft 466 kts 225°
2026-05-06 16:37 36.08325 -77.47469 31995 ft 466 kts 225°
2026-05-06 16:37 36.03210 -77.52423 32026 ft 467 kts 225°
2026-05-06 16:38 35.98086 -77.57375 32028 ft 468 kts 225°
2026-05-06 16:38 35.92941 -77.62334 32027 ft 469 kts 225°
2026-05-06 16:39 35.87798 -77.67284 32023 ft 468 kts 225°
2026-05-06 16:39 35.82666 -77.72224 32022 ft 469 kts 224°
2026-05-06 16:40 35.77453 -77.77231 32037 ft 469 kts 224°
2026-05-06 16:40 35.72295 -77.82171 32034 ft 470 kts 224°
2026-05-06 16:41 35.67132 -77.87106 32034 ft 470 kts 224°
2026-05-06 16:41 35.61969 -77.92041 32030 ft 470 kts 223°
2026-05-06 16:42 35.56839 -77.96925 32047 ft 469 kts 223°
2026-05-06 16:42 35.51683 -78.01834 32045 ft 469 kts 224°
2026-05-06 16:43 35.46532 -78.06728 32051 ft 468 kts 224°
2026-05-06 16:43 35.41381 -78.11611 32049 ft 468 kts 224°
2026-05-06 16:44 35.36228 -78.16490 32050 ft 468 kts 224°
2026-05-06 16:44 35.31084 -78.21360 32042 ft 468 kts 224°
2026-05-06 16:45 35.25912 -78.26248 32038 ft 468 kts 223°
2026-05-06 16:45 35.21622 -78.30269 32033 ft 467 kts 224°
2026-05-06 16:46 35.16466 -78.35120 32023 ft 467 kts 224°
2026-05-06 16:46 35.10479 -78.40752 32049 ft 467 kts 224°
2026-05-06 16:47 35.06157 -78.44806 32053 ft 468 kts 224°
2026-05-06 16:47 35.01024 -78.49612 32052 ft 468 kts 224°
2026-05-06 16:48 34.95860 -78.54443 32048 ft 468 kts 224°
2026-05-06 16:48 34.90685 -78.59273 32028 ft 469 kts 223°
2026-05-06 16:49 34.85489 -78.64114 32034 ft 470 kts 223°
2026-05-06 16:49 34.80281 -78.68958 32058 ft 471 kts 223°
2026-05-06 16:50 34.75059 -78.73807 32052 ft 471 kts 224°
2026-05-06 16:50 34.69843 -78.78648 32036 ft 472 kts 223°
2026-05-06 16:51 34.64611 -78.83491 32049 ft 473 kts 223°
2026-05-06 16:51 34.59368 -78.88337 32053 ft 474 kts 223°
2026-05-06 16:52 34.54113 -78.93184 32054 ft 475 kts 223°
2026-05-06 16:52 34.48850 -78.98030 32035 ft 475 kts 223°
2026-05-06 16:53 34.43622 -79.02844 32057 ft 476 kts 223°
2026-05-06 16:53 34.38168 -79.07530 32065 ft 478 kts 221°
2026-05-06 16:54 34.32783 -79.12144 32071 ft 478 kts 221°
2026-05-06 16:54 34.27359 -79.16791 32070 ft 477 kts 221°
2026-05-06 16:55 34.22101 -79.21629 32061 ft 474 kts 225°
2026-05-06 16:55 34.17041 -79.26734 32070 ft 474 kts 225°
2026-05-06 16:56 34.11950 -79.31806 32073 ft 475 kts 225°
2026-05-06 16:56 34.06820 -79.36847 32071 ft 475 kts 225°
2026-05-06 16:57 34.01690 -79.41880 32055 ft 476 kts 225°
2026-05-06 16:57 33.96551 -79.46911 32068 ft 476 kts 225°
2026-05-06 16:58 33.91410 -79.51937 32068 ft 476 kts 225°
2026-05-06 16:58 33.86138 -79.56792 32073 ft 481 kts 219°
2026-05-06 16:59 33.80345 -79.60907 32068 ft 486 kts 214°
2026-05-06 16:59 33.74412 -79.64787 32066 ft 485 kts 216°
2026-05-06 17:00 33.69630 -79.68039 32069 ft 485 kts 216°
2026-05-06 17:00 33.63749 -79.72029 32088 ft 486 kts 216°
2026-05-06 17:01 33.57864 -79.76017 32088 ft 486 kts 216°
2026-05-06 17:01 33.51969 -79.80005 32068 ft 486 kts 216°
2026-05-06 17:02 33.46076 -79.83991 32075 ft 487 kts 216°
2026-05-06 17:02 33.40164 -79.87980 31836 ft 492 kts 216°
2026-05-06 17:02 33.37200 -79.89983 31320 ft 481 kts 216°
2026-05-06 17:03 33.34335 -79.91901 30773 ft 464 kts 215°
2026-05-06 17:03 33.31566 -79.93764 30232 ft 450 kts 214°
2026-05-06 17:03 33.28871 -79.95573 29612 ft 439 kts 214°
2026-05-06 17:03 33.26241 -79.97336 28971 ft 429 kts 215°
2026-05-06 17:04 33.23666 -79.99069 28364 ft 421 kts 215°
2026-05-06 17:04 33.21134 -80.00765 27768 ft 414 kts 214°
2026-05-06 17:04 33.18645 -80.02432 27185 ft 407 kts 214°
2026-05-06 17:04 33.16276 -80.04020 26634 ft 402 kts 214°
2026-05-06 17:05 33.13780 -80.05691 26061 ft 396 kts 214°
2026-05-06 17:05 33.11358 -80.07311 25509 ft 392 kts 214°
2026-05-06 17:05 33.09024 -80.08872 24979 ft 388 kts 214°
2026-05-06 17:05 33.06680 -80.10438 24454 ft 384 kts 214°
2026-05-06 17:06 33.04355 -80.11993 23948 ft 381 kts 214°
2026-05-06 17:06 33.02050 -80.13532 23397 ft 378 kts 214°
2026-05-06 17:06 32.99759 -80.15057 22793 ft 376 kts 214°
2026-05-06 17:06 32.97489 -80.16571 22205 ft 373 kts 215°
2026-05-06 17:07 32.95231 -80.18074 21623 ft 370 kts 215°
2026-05-06 17:07 32.92994 -80.19563 21063 ft 367 kts 216°
2026-05-06 17:07 32.90769 -80.21040 20502 ft 364 kts 216°
2026-05-06 17:07 32.88565 -80.22504 19967 ft 362 kts 217°
2026-05-06 17:08 32.86375 -80.23959 19430 ft 359 kts 217°
2026-05-06 17:08 32.84202 -80.25401 18904 ft 356 kts 217°
2026-05-06 17:08 32.82045 -80.26831 18381 ft 354 kts 218°
2026-05-06 17:08 32.79905 -80.28251 17788 ft 351 kts 218°
2026-05-06 17:09 32.77781 -80.29666 17176 ft 349 kts 217°
2026-05-06 17:09 32.75673 -80.31075 16614 ft 347 kts 217°
2026-05-06 17:09 32.73575 -80.32485 16050 ft 345 kts 216°
2026-05-06 17:09 32.71515 -80.33875 15558 ft 342 kts 216°
2026-05-06 17:10 32.70064 -80.34850 15357 ft 339 kts 216°
2026-05-06 17:10 32.67259 -80.36739 15195 ft 360 kts 215°
2026-05-06 17:10 32.65030 -80.38218 15149 ft 373 kts 214°
2026-05-06 17:10 32.62732 -80.39735 15128 ft 383 kts 214°
2026-05-06 17:11 32.60373 -80.41290 15127 ft 392 kts 214°
2026-05-06 17:11 32.57959 -80.42883 15119 ft 401 kts 214°
2026-05-06 17:11 32.55502 -80.44505 15116 ft 408 kts 214°
2026-05-06 17:11 32.52998 -80.46157 15114 ft 415 kts 214°
2026-05-06 17:12 32.50458 -80.47826 15104 ft 420 kts 214°
2026-05-06 17:12 32.48762 -80.48947 15101 ft 424 kts 214°
2026-05-06 17:12 32.45396 -80.51146 15100 ft 400 kts 214°
2026-05-06 17:12 32.43012 -80.52708 15092 ft 384 kts 214°
2026-05-06 17:13 32.41527 -80.53779 15085 ft 370 kts 222°
2026-05-06 17:13 32.39906 -80.55980 14799 ft 348 kts 245°
2026-05-06 17:13 32.38901 -80.58547 14226 ft 341 kts 249°
2026-05-06 17:13 32.37959 -80.61103 13621 ft 337 kts 249°
2026-05-06 17:14 32.37077 -80.63661 12990 ft 334 kts 251°
2026-05-06 17:14 32.36466 -80.66274 12380 ft 328 kts 265°
2026-05-06 17:14 32.36382 -80.68953 11780 ft 325 kts 269°
2026-05-06 17:14 32.36358 -80.71621 11187 ft 322 kts 269°
2026-05-06 17:15 32.36295 -80.74284 10602 ft 320 kts 267°
2026-05-06 17:15 32.36166 -80.76900 10023 ft 317 kts 266°
2026-05-06 17:15 32.36004 -80.79492 9390 ft 315 kts 265°
2026-05-06 17:15 32.35843 -80.82067 8765 ft 312 kts 266°
2026-05-06 17:16 32.35683 -80.84611 8144 ft 309 kts 266°
2026-05-06 17:16 32.35525 -80.87138 7537 ft 306 kts 266°
2026-05-06 17:16 32.35373 -80.89603 6944 ft 303 kts 266°
2026-05-06 17:16 32.35223 -80.92074 6335 ft 299 kts 266°
2026-05-06 17:17 32.35076 -80.94516 5724 ft 296 kts 266°
2026-05-06 17:17 32.34927 -80.96930 5109 ft 292 kts 265°
2026-05-06 17:17 32.34782 -80.99312 4469 ft 288 kts 265°
2026-05-06 17:17 32.34640 -81.01663 3837 ft 286 kts 265°
2026-05-06 17:18 32.34494 -81.03995 3250 ft 284 kts 264°
2026-05-06 17:18 32.34350 -81.06290 2896 ft 274 kts 264°
2026-05-06 17:18 32.34217 -81.08479 2729 ft 260 kts 264°
2026-05-06 17:18 32.34090 -81.10547 2645 ft 243 kts 264°
2026-05-06 17:19 32.33978 -81.12476 2635 ft 226 kts 264°
2026-05-06 17:19 32.33854 -81.14276 2641 ft 221 kts 264°
2026-05-06 17:19 32.33691 -81.16112 2707 ft 229 kts 262°
2026-05-06 17:19 32.33407 -81.17866 2681 ft 209 kts 244°
2026-05-06 17:20 32.32431 -81.19007 2712 ft 194 kts 205°
2026-05-06 17:20 32.31204 -81.19587 2735 ft 186 kts 205°
2026-05-06 17:20 32.30030 -81.20135 2640 ft 180 kts 195°
2026-05-06 17:20 32.28823 -81.20278 2610 ft 169 kts 185°
2026-05-06 17:21 32.27694 -81.20284 2601 ft 157 kts 179°
2026-05-06 17:21 32.26644 -81.20177 2539 ft 144 kts 179°
2026-05-06 17:21 32.25600 -81.20111 2444 ft 164 kts 191°
2026-05-06 17:21 32.24397 -81.20234 2189 ft 194 kts 179°
2026-05-06 17:22 32.22968 -81.20063 1919 ft 209 kts 178°
2026-05-06 17:22 32.21635 -81.19990 1751 ft 179 kts 183°
2026-05-06 17:22 32.20450 -81.20062 1545 ft 167 kts 186°
2026-05-06 17:22 32.19315 -81.20022 1311 ft 158 kts 180°
2026-05-06 17:23 32.18260 -81.20015 1164 ft 149 kts 181°
2026-05-06 17:23 32.17219 -81.20009 935 ft 151 kts 182°
2026-05-06 17:23 32.16185 -81.20001 762 ft 147 kts 183°
2026-05-06 17:23 32.15155 -81.20021 508 ft 148 kts 184°
2026-05-06 17:24 32.14154 -81.20014 210 ft 139 kts 182°
2026-05-06 17:24 32.13232 -81.20000 73 ft 121 kts 185°
2026-05-06 17:24 32.12641 -81.20009 51 ft 40 kts 175°
2026-05-06 17:24 32.12525 -81.19912 50 ft 11 kts 109°
2026-05-06 17:25 32.12512 -81.19865 49 ft 0 kts 107°
2026-05-06 17:25 32.12510 -81.19858 51 ft 3 kts 107°